Hourly Data Report for September 27, 2017

All times are specified in Local Standard Time (LST). Add 1 hour to adjust for Daylight Saving Time where and when it is observed.

OTTAWA INTL A
ONTARIO

45°19'00.000" N
75°40'00.000" W
114.90 m
6106001
71628
YOW

Download Data

Hourly Data (September 2017)
Hourly Data Report for September 27, 2017
Temp Definition
°C
Dew Point Temp Definition
°C
Rel Hum Definition
%
Wind Dir Definition
10's deg

Wind Spd Definition
km/h
Visibility Definition
km
Stn Press Definition
kPa
Hmdx Definition


Wind Chill Definition


Weather Definition


TIME
00:00 Legend Double Dagger 20.9 19.1 89 20 9 24.1 99.86 28   LegendNANA
01:00 Legend Double Dagger 20.3 19.0 92 19 9 24.1 99.86 27   Mainly Clear
02:00 Legend Double Dagger 19.8 18.7 93 19 7 24.1 99.83     LegendNANA
03:00 Legend Double Dagger 19.2 18.2 93 16 8 24.1 99.78     LegendNANA
04:00 Legend Double Dagger 18.8 18.0 95 18 6 16.1 99.74     Mainly Clear
05:00 Legend Double Dagger 18.9 18.0 94 17 7 16.1 99.72     LegendNANA
06:00 Legend Double Dagger 18.4 17.6 95 19 8 24.1 99.71     LegendNANA
07:00 Legend Double Dagger 19.1 18.2 94 18 10 24.1 99.66     Mostly Cloudy
08:00 Legend Double Dagger 21.4 19.1 87 19 9 24.1 99.62 28   LegendNANA
09:00 Legend Double Dagger 24.2 19.5 74 22 13 24.1 99.59 31   LegendNANA
10:00 Legend Double Dagger 27.0 19.5 63 20 17 24.1 99.53 34   Mainly Clear
11:00 Legend Double Dagger 29.6 18.1 50 20 24 24.1 99.44 36   LegendNANA
12:00 Legend Double Dagger 29.5 18.7 51 21 23 24.1 99.39 36   LegendNANA
13:00 Legend Double Dagger 28.9 18.9 54 22 22 24.1 99.33 36   Mostly Cloudy
14:00 Legend Double Dagger 29.2 19.0 54 22 21 24.1 99.24 36   LegendNANA
15:00 Legend Double Dagger 22.4 20.0 87 27 13 24.1 99.23 30   Thunderstorms
16:00 Legend Double Dagger 22.9 20.7 87 22 12 24.1 99.32 31   Cloudy
17:00 Legend Double Dagger 23.7 19.2 76 26 22 24.1 99.31 31   LegendNANA
18:00 Legend Double Dagger 22.3 17.3 73 27 22 24.1 99.37 28   LegendNANA
19:00 Legend Double Dagger 21.1 15.5 70 27 24 24.1 99.42 25   Mostly Cloudy
20:00 Legend Double Dagger 19.8 13.5 67 28 20 24.1 99.50     LegendNANA
21:00 Legend Double Dagger 18.5 11.6 64 29 18 24.1 99.49     LegendNANA
22:00 Legend Double Dagger 17.6 11.3 66 27 21 24.1 99.56     Mainly Clear
23:00 Legend Double Dagger 15.9 11.1 72 27 18 24.1 99.59     LegendNANA

Notes on Data Quality.

Legend

  • E = Estimated
  • M = Missing
  • NA = Not Available
  • ‡ = Partner data that is not subject to review by the National Climate Archives
Date modified: